Regional Weather Roundup
Issued by NWS Green Bay, WI

Home | Current Version | Previous Version | Text Only | Print | Product List | Glossary On
Versions: 1 2 3 4 5 6 7 8 9 10 11 12 13 14 15 16 17 18 19 20 21 22 23 24 25 26 27 28 29 30 31 32 33 34 35 36 37 38 39 40 41 42 43 44 45 46 47 48 49 50
000
ASUS43 KGRB 011311
RWRGRB

NORTH-CENTRAL AND NORTHEAST WISCONSIN REGIONAL WEATHER ROUNDUP
NATIONAL WEATHER SERVICE GREEN BAY WI
800 AM CDT SUN MAY 01 2016

WIZ005-009-010>012-018-019-011400-
NORTH CENTRAL WISCONSIN

CITY           SKY/WX    TMP DP  RH WIND       PRES   REMARKS
IRONWOOD         N/A     37  37 100 NE5       30.18S
MANITOWISH WTR CLOUDY    38  36  92 N8        30.16S
ARBOR VITAE    MOSUNNY   39  35  86 N7        30.15S
EAGLE RIVER    PTSUNNY   39  35  86 NE8       30.14S
LAND O LAKES   MOSUNNY   38  35  88 N6        30.16S
RHINELANDER    CLOUDY    39  34  82 VRB7      30.14R
PHILLIPS       CLOUDY    38  35  88 N8        30.14S
ANTIGO         CLOUDY    40  35  80 NE12      30.11R
TOMAHAWK       MOSUNNY   39  34  82 NE6       30.14R
MERRILL        MOSUNNY   41  35  79 NE7       30.12R
$$

WIZ013-073-011400-
NORTHEAST WISCONSIN

CITY           SKY/WX    TMP DP  RH WIND       PRES   REMARKS
IRON MOUNTAIN  CLOUDY    43  34  70 N10       30.12S
MARINETTE      CLOUDY    43  34  70 N7        30.11R
OCONTO         CLOUDY    43  37  78 N7        30.10S
$$

WIZ017-030-035>037-045-011400-
CENTRAL WISCONSIN

CITY           SKY/WX    TMP DP  RH WIND       PRES   REMARKS
MEDFORD        CLOUDY    40  35  83 N8        30.11R
WAUSAU         CLOUDY    45  34  65 N6        30.09R
MOSINEE        CLOUDY    43  34  70 NE10      30.11R
MARSHFIELD     CLOUDY    44  33  65 NE9       30.09R
WISC RAPIDS    CLOUDY    45  32  60 NE8       30.10R
STEVENS POINT  CLOUDY    42  32  68 NE9       30.10R
WAUPACA        DRIZZLE   45  36  69 N7        30.09R
SHAWANO        CLOUDY    46  36  68 NE8       30.11S
CLINTONVILLE   LGT RAIN  43  36  75 NE7       30.10R
WAUTOMA        NOT AVBL
$$

WIZ038-039-048-051-011400-
FOX VALLEY

CITY           SKY/WX    TMP DP  RH WIND       PRES   REMARKS
NWS GREEN BAY  LGT RAIN  44  39  82 NE10      30.09R
APPLETON       DRIZZLE   43  34  70 NE12      30.07R
OSHKOSH        CLOUDY    44  38  79 NE13      30.07R
FOND DU LAC    CLOUDY    44  38  79 NE13      30.07R
$$

WIZ022-050-052-011400-
EAST CENTRAL WISCONSIN

CITY           SKY/WX    TMP DP  RH WIND       PRES   REMARKS
EPHRAIM        FAIR      40  37  87 N6        30.09R
STURGEON BAY   CLOUDY    41  36  81 N8        30.12R
MANITOWOC      LGT RAIN  42  39  89 MISG      30.08R
SHEBOYGAN      LGT RAIN  42  39  89 NE10      30.07R FOG
$$

LMZ563-521-522-541>543-011400-
LAKESHORE

STATION/POSITION TIME  TEMP    WIND        PRES    VSBY  WAVE
                       AIR SEA DIR/SP/G                  HT/PER
                 (UTC) (F)     (DEG/KT/KT) (MB)    (MI)  (FT/S)
SHEBOYGAN LKSHOR 1300   40      20/ 17/ 19 1018.9R
KEWAUNEE LKSHORE 1200   42      10/  9/ 12 1017.6R
ALGOMA MARINA    1215           10/  7/  8   N/A
NORTHPORT PIER   1200   41     310/  4/  7 1019.3R
N MID LAKE BUOY  1250   40 38   30/ 12/ 12 1019.2R         1/ 3
CHAMBERS ISLAND  1200   41     340/  7/  8 1019.3S
MENOMINEE LKSHOR 1200   43     360/  8/  9 1018.2R
$$



USA.gov is the U.S. government's official web portal to all federal, state and local government web resources and services.